START_TIME,STEP,MOV.,M35,t_acc.,PL05,t_acc.,PL06,t_acc.,PL07,t_acc.
1979-07-22 03:00:23.560 ,6,0,0.,4.8,1.,4.8,4.,4.8,0.,4.8
1979-07-22 03:00:28.360 ,6,0,0.,4.8,0.,4.8,0.,4.8,1.,4.8
1979-07-22 03:00:33.160 ,6,0,0.,4.8,0.,4.8,0.,4.8,0.,4.8
1979-07-22 03:00:37.960 ,6,0,0.,4.8,0.,4.8,1.,4.8,0.,4.8
1979-07-22 03:00:42.760 ,6,0,0.,4.8,2.,4.8,2.,4.8,1.,4.8
1979-07-22 03:00:47.560 ,5,0,0.,4.8,1.,4.8,2.,4.8,2.,4.8
1979-07-22 03:00:52.360 ,5,0,0.,4.8,3.,4.8,0.,4.8,1.,4.8
1979-07-22 03:00:57.160 ,5,0,0.,4.8,4.,4.8,2.,4.8,0.,4.8
1979-07-22 03:01:01.960 ,5,0,0.,4.8,3.,4.8,1.,4.8,1.,4.8
1979-07-22 03:01:06.760 ,5,0,0.,4.8,3.,4.8,1.,4.8,0.,4.8
1979-07-22 03:01:11.560 ,5,0,0.,4.8,3.,4.8,2.,4.8,1.,4.8
1979-07-22 03:01:16.360 ,5,0,0.,4.8,4.,4.8,2.,4.8,1.,4.8
1979-07-22 03:01:21.160 ,5,0,0.,4.8,2.,4.8,2.,4.8,1.,4.8
1979-07-22 03:01:25.960 ,5,0,0.,4.8,1.,4.8,4.,4.8,0.,4.8
1979-07-22 03:01:30.760 ,5,0,0.,4.8,0.,4.8,2.,4.8,1.,4.8
1979-07-22 03:01:35.560 ,4,0,0.,4.8,4.,4.8,2.,4.8,3.,4.8
1979-07-22 03:01:40.360 ,4,0,0.,4.8,1.,4.8,4.,4.8,1.,4.8
1979-07-22 03:01:45.160 ,4,0,0.,4.8,4.,4.8,1.,4.8,0.,4.8
1979-07-22 03:01:49.960 ,4,0,0.,4.8,2.,4.8,3.,4.8,1.,4.8
1979-07-22 03:01:54.760 ,4,0,0.,4.8,3.,4.8,0.,4.8,3.,4.8
1979-07-22 03:01:59.560 ,4,0,0.,4.8,3.,4.8,2.,4.8,0.,4.8
1979-07-22 03:02:04.360 ,4,0,0.,4.8,5.,4.8,1.,4.8,2.,4.8
1979-07-22 03:02:09.160 ,4,0,0.,4.8,4.,4.8,1.,4.8,1.,4.8
1979-07-22 03:02:13.960 ,4,0,0.,4.8,4.,4.8,1.,4.8,2.,4.8
1979-07-22 03:02:18.760 ,4,0,0.,4.8,2.,4.8,0.,4.8,1.,4.8
1979-07-22 03:02:23.560 ,3,0,0.,4.8,4.,4.8,0.,4.8,2.,4.8
1979-07-22 03:02:28.360 ,3,0,0.,4.8,5.,4.8,0.,4.8,1.,4.8
1979-07-22 03:02:33.160 ,3,0,0.,4.8,2.,4.8,1.,4.8,0.,4.8
1979-07-22 03:02:37.960 ,3,0,0.,4.8,0.,4.8,2.,4.8,0.,4.8
1979-07-22 03:02:42.760 ,3,0,0.,4.8,5.,4.8,1.,4.8,1.,4.8
1979-07-22 03:02:47.560 ,3,0,0.,4.8,0.,4.8,1.,4.8,0.,4.8
1979-07-22 03:02:52.360 ,3,0,0.,4.8,4.,4.8,0.,4.8,0.,4.8
1979-07-22 03:02:57.160 ,3,0,0.,4.8,1.,4.8,0.,4.8,0.,4.8
1979-07-22 03:03:01.960 ,3,0,0.,4.8,2.,4.8,1.,4.8,2.,4.8
1979-07-22 03:03:06.760 ,3,0,0.,4.8,4.,4.8,1.,4.8,1.,4.8
1979-07-22 03:03:11.550 ,2,0,0.,4.8,0.,4.8,1.,4.8,1.,4.8
1979-07-22 03:03:16.350 ,2,0,0.,4.8,5.,4.8,1.,4.8,0.,4.8
1979-07-22 03:03:21.150 ,2,0,0.,4.8,2.,4.8,3.,4.8,1.,4.8
1979-07-22 03:03:25.960 ,2,0,0.,4.8,2.,4.8,2.,4.8,2.,4.8
1979-07-22 03:03:30.760 ,2,0,0.,4.8,1.,4.8,3.,4.8,0.,4.8
1979-07-22 03:03:35.550 ,2,0,0.,4.8,3.,4.8,4.,4.8,1.,4.8
1979-07-22 03:03:40.350 ,2,0,0.,4.8,1.,4.8,2.,4.8,0.,4.8
1979-07-22 03:03:45.150 ,2,0,0.,4.8,3.,4.8,4.,4.8,0.,4.8
1979-07-22 03:03:49.960 ,2,0,0.,4.8,2.,4.8,1.,4.8,0.,4.8
1979-07-22 03:03:54.760 ,2,0,0.,4.8,3.,4.8,4.,4.8,1.,4.8
1979-07-22 03:03:59.550 ,1,0,0.,4.8,4.,4.8,5.,4.8,2.,4.8
1979-07-22 03:04:04.350 ,1,0,0.,4.8,2.,4.8,1.,4.8,0.,4.8
1979-07-22 03:04:09.160 ,1,0,0.,4.8,8.,4.8,3.,4.8,2.,4.8
1979-07-22 03:04:13.960 ,1,0,0.,4.8,4.,4.8,1.,4.8,0.,4.8
1979-07-22 03:04:18.760 ,1,0,0.,4.8,2.,4.8,0.,4.8,0.,4.8
1979-07-22 03:04:23.550 ,1,0,0.,4.8,4.,4.8,3.,4.8,2.,4.8
1979-07-22 03:04:28.360 ,1,0,0.,4.8,1.,4.8,3.,4.8,2.,4.8
1979-07-22 03:04:33.150 ,1,0,0.,4.8,1.,4.8,1.,4.8,0.,4.8
1979-07-22 03:04:37.960 ,1,0,0.,4.8,2.,4.8,2.,4.8,1.,4.8
1979-07-22 03:04:42.760 ,1,0,0.,4.8,5.,4.8,1.,4.8,2.,4.8
1979-07-22 03:04:47.550 ,0,0,0.,4.8,5.,4.8,1.,4.8,0.,4.8
1979-07-22 03:04:52.360 ,0,0,0.,4.8,2.,4.8,0.,4.8,0.,4.8
1979-07-22 03:04:57.150 ,0,0,0.,4.8,3.,4.8,1.,4.8,1.,4.8
1979-07-22 03:05:01.960 ,0,0,0.,4.8,1.,4.8,1.,4.8,0.,4.8
1979-07-22 03:05:06.760 ,0,0,0.,4.8,5.,4.8,2.,4.8,0.,4.8
1979-07-22 03:05:11.550 ,0,0,0.,4.8,5.,4.8,1.,4.8,1.,4.8
1979-07-22 03:05:16.360 ,0,0,0.,4.8,2.,4.8,1.,4.8,0.,4.8
1979-07-22 03:05:21.150 ,0,0,0.,4.8,2.,4.8,2.,4.8,1.,4.8
1979-07-22 03:05:25.960 ,0,0,0.,4.8,4.,4.8,4.,4.8,2.,4.8
1979-07-22 03:05:30.760 ,0,0,0.,4.8,2.,4.8,0.,4.8,1.,4.8
1979-07-22 03:05:35.550 ,0,0,0.,4.8,3.,4.8,1.,4.8,2.,4.8
1979-07-22 03:05:40.360 ,0,0,0.,4.8,2.,4.8,1.,4.8,0.,4.8
1979-07-22 03:05:45.150 ,0,0,0.,4.8,4.,4.8,2.,4.8,2.,4.8
1979-07-22 03:05:49.960 ,0,0,0.,4.8,2.,4.8,0.,4.8,0.,4.8
1979-07-22 03:05:54.760 ,0,0,0.,4.8,1.,4.8,1.,4.8,0.,4.8
1979-07-22 03:05:59.550 ,0,0,0.,4.8,0.,4.8,0.,4.8,0.,4.8
1979-07-22 03:06:04.360 ,0,0,0.,4.8,2.,4.8,1.,4.8,2.,4.8
1979-07-22 03:06:09.150 ,0,0,0.,4.8,2.,4.8,1.,4.8,1.,4.8
1979-07-22 03:06:13.960 ,0,0,0.,4.8,4.,4.8,2.,4.8,0.,4.8
1979-07-22 03:06:18.760 ,0,0,0.,4.8,3.,4.8,3.,4.8,2.,4.8
1979-07-22 03:06:23.550 ,1,0,0.,4.8,2.,4.8,1.,4.8,0.,4.8
1979-07-22 03:06:28.360 ,1,0,0.,4.8,3.,4.8,1.,4.8,0.,4.8
1979-07-22 03:06:33.150 ,1,0,0.,4.8,2.,4.8,0.,4.8,0.,4.8
1979-07-22 03:06:37.960 ,1,0,0.,4.8,3.,4.8,1.,4.8,1.,4.8
1979-07-22 03:06:42.760 ,1,0,0.,4.8,4.,4.8,0.,4.8,2.,4.8
1979-07-22 03:06:47.550 ,1,0,0.,4.8,3.,4.8,4.,4.8,1.,4.8
1979-07-22 03:06:52.360 ,1,0,0.,4.8,5.,4.8,2.,4.8,1.,4.8
1979-07-22 03:06:57.150 ,1,0,0.,4.8,1.,4.8,2.,4.8,1.,4.8
1979-07-22 03:07:01.960 ,1,0,0.,4.8,2.,4.8,2.,4.8,0.,4.8
1979-07-22 03:07:06.760 ,1,0,0.,4.8,4.,4.8,3.,4.8,1.,4.8
1979-07-22 03:07:11.550 ,2,0,0.,4.8,5.,4.8,1.,4.8,0.,4.8
1979-07-22 03:07:16.360 ,2,0,0.,4.8,4.,4.8,2.,4.8,2.,4.8
1979-07-22 03:07:21.150 ,2,0,0.,4.8,2.,4.8,1.,4.8,1.,4.8
1979-07-22 03:07:25.960 ,2,0,0.,4.8,1.,4.8,3.,4.8,0.,4.8
1979-07-22 03:07:30.760 ,2,0,0.,4.8,5.,4.8,1.,4.8,1.,4.8
1979-07-22 03:07:35.550 ,2,0,0.,4.8,1.,4.8,1.,4.8,0.,4.8
1979-07-22 03:07:40.360 ,2,0,0.,4.8,4.,4.8,0.,4.8,1.,4.8
1979-07-22 03:07:45.150 ,2,0,0.,4.8,2.,4.8,1.,4.8,2.,4.8
1979-07-22 03:07:49.960 ,2,0,0.,4.8,2.,4.8,2.,4.8,0.,4.8
1979-07-22 03:07:54.760 ,2,0,0.,4.8,3.,4.8,0.,4.8,1.,4.8
1979-07-22 03:07:59.550 ,3,0,0.,4.8,1.,4.8,1.,4.8,1.,4.8
1979-07-22 03:08:04.360 ,3,0,0.,4.8,4.,4.8,3.,4.8,0.,4.8
1979-07-22 03:08:09.150 ,3,0,0.,4.8,3.,4.8,3.,4.8,2.,4.8
1979-07-22 03:08:13.960 ,3,0,0.,4.8,4.,4.8,2.,4.8,0.,4.8
1979-07-22 03:08:18.760 ,3,0,0.,4.8,7.,4.8,1.,4.8,0.,4.8
1979-07-22 03:08:23.550 ,3,0,0.,4.8,2.,4.8,3.,4.8,1.,4.8
1979-07-22 03:08:28.360 ,3,0,0.,4.8,3.,4.8,0.,4.8,1.,4.8
1979-07-22 03:08:33.160 ,3,0,0.,4.8,3.,4.8,0.,4.8,1.,4.8
1979-07-22 03:08:37.960 ,3,0,0.,4.8,4.,4.8,0.,4.8,2.,4.8
1979-07-22 03:08:42.760 ,3,0,0.,4.8,4.,4.8,1.,4.8,1.,4.8
1979-07-22 03:08:47.560 ,4,0,0.,4.8,3.,4.8,2.,4.8,1.,4.8
1979-07-22 03:08:52.360 ,4,0,0.,4.8,2.,4.8,2.,4.8,0.,4.8
1979-07-22 03:08:57.160 ,4,0,0.,4.8,3.,4.8,2.,4.8,1.,4.8
1979-07-22 03:09:01.960 ,4,0,0.,4.8,2.,4.8,0.,4.8,3.,4.8
1979-07-22 03:09:06.760 ,4,0,0.,4.8,1.,4.8,0.,4.8,0.,4.8
1979-07-22 03:09:11.560 ,4,0,0.,4.8,1.,4.8,1.,4.8,0.,4.8
1979-07-22 03:09:16.360 ,4,0,0.,4.8,3.,4.8,1.,4.8,0.,4.8
1979-07-22 03:09:21.160 ,4,0,0.,4.8,3.,4.8,0.,4.8,0.,4.8
1979-07-22 03:09:25.960 ,4,0,0.,4.8,5.,4.8,2.,4.8,1.,4.8
1979-07-22 03:09:30.760 ,4,0,0.,4.8,1.,4.8,3.,4.8,2.,4.8
1979-07-22 03:09:35.560 ,5,0,0.,4.8,2.,4.8,1.,4.8,1.,4.8
1979-07-22 03:09:40.360 ,5,0,0.,4.8,3.,4.8,2.,4.8,1.,4.8
1979-07-22 03:09:45.160 ,5,0,0.,4.8,2.,4.8,3.,4.8,1.,4.8
1979-07-22 03:09:49.960 ,5,0,0.,4.8,2.,4.8,0.,4.8,0.,4.8
1979-07-22 03:09:54.760 ,5,0,0.,4.8,4.,4.8,2.,4.8,0.,4.8
1979-07-22 03:09:59.560 ,5,0,0.,4.8,3.,4.8,1.,4.8,1.,4.8
1979-07-22 03:10:04.360 ,5,0,0.,4.8,0.,4.8,0.,4.8,0.,4.8
1979-07-22 03:10:09.160 ,5,0,0.,4.8,2.,4.8,2.,4.8,3.,4.8
1979-07-22 03:10:13.960 ,5,0,0.,4.8,4.,4.8,1.,4.8,0.,4.8
1979-07-22 03:10:18.760 ,5,0,0.,4.8,2.,4.8,0.,4.8,0.,4.8
1979-07-22 03:10:23.560 ,6,0,0.,4.8,3.,4.8,1.,4.8,5.,4.8
1979-07-22 03:10:28.360 ,6,0,0.,4.8,4.,4.8,5.,4.8,1.,4.8
1979-07-22 03:10:33.160 ,6,0,0.,4.8,6.,4.8,4.,4.8,0.,4.8
1979-07-22 03:10:37.960 ,6,0,0.,4.8,2.,4.8,0.,4.8,1.,4.8
1979-07-22 03:10:42.760 ,6,0,0.,4.8,3.,4.8,1.,4.8,1.,4.8
1979-07-22 03:10:47.560 ,6,0,0.,4.8,1.,4.8,1.,4.8,1.,4.8
1979-07-22 03:10:52.360 ,6,0,0.,4.8,0.,4.8,2.,4.8,1.,4.8
1979-07-22 03:10:57.160 ,6,0,0.,4.8,5.,4.8,0.,4.8,0.,4.8
1979-07-22 03:11:01.960 ,6,0,0.,4.8,2.,4.8,2.,4.8,1.,4.8
1979-07-22 03:11:06.760 ,6,0,0.,4.8,3.,4.8,0.,4.8,2.,4.8
1979-07-22 03:11:11.560 ,7,0,0.,4.8,3.,4.8,0.,4.8,0.,4.8
1979-07-22 03:11:16.360 ,7,0,0.,4.8,5.,4.8,1.,4.8,0.,4.8
1979-07-22 03:11:21.160 ,7,0,0.,4.8,0.,4.8,0.,4.8,0.,4.8
1979-07-22 03:11:25.960 ,7,0,0.,4.8,0.,4.8,0.,4.8,0.,4.8
1979-07-22 03:11:30.760 ,7,0,0.,4.8,0.,4.8,0.,4.8,0.,4.8
1979-07-22 03:11:35.560 ,7,0,0.,4.8,0.,4.8,0.,4.8,0.,4.8
1979-07-22 03:11:40.360 ,7,0,0.,4.8,0.,4.8,0.,4.8,0.,4.8
1979-07-22 03:11:45.160 ,7,0,0.,4.8,1.,4.8,0.,4.8,0.,4.8
1979-07-22 03:11:49.960 ,7,0,0.,4.8,0.,4.8,0.,4.8,0.,4.8
1979-07-22 03:11:54.760 ,7,0,0.,4.8,0.,4.8,0.,4.8,0.,4.8
1979-07-22 03:11:59.560 ,7,0,0.,4.8,0.,4.8,0.,4.8,0.,4.8
1979-07-22 03:12:04.360 ,7,0,0.,4.8,0.,4.8,0.,4.8,1.,4.8
1979-07-22 03:12:09.160 ,7,0,0.,4.8,0.,4.8,0.,4.8,0.,4.8
1979-07-22 03:12:13.960 ,7,0,0.,4.8,0.,4.8,0.,4.8,1.,4.8
1979-07-22 03:12:18.760 ,7,0,0.,4.8,2.,4.8,0.,4.8,1.,4.8
1979-07-22 03:12:23.560 ,7,0,0.,4.8,0.,4.8,0.,4.8,0.,4.8
1979-07-22 03:12:28.360 ,7,0,0.,4.8,0.,4.8,0.,4.8,1.,4.8
1979-07-22 03:12:33.160 ,7,0,0.,4.8,0.,4.8,0.,4.8,0.,4.8
1979-07-22 03:12:37.960 ,7,0,0.,4.8,0.,4.8,0.,4.8,0.,4.8
1979-07-22 03:12:42.760 ,7,0,0.,4.8,0.,4.8,0.,4.8,1.,4.8
1979-07-22 03:12:47.560 ,6,0,0.,4.8,3.,4.8,0.,4.8,0.,4.8
1979-07-22 03:12:52.360 ,6,0,0.,4.8,1.,4.8,0.,4.8,0.,4.8
1979-07-22 03:12:57.160 ,6,0,0.,4.8,1.,4.8,0.,4.8,1.,4.8
1979-07-22 03:13:01.960 ,6,0,0.,4.8,1.,4.8,1.,4.8,1.,4.8
1979-07-22 03:13:06.760 ,6,0,0.,4.8,1.,4.8,1.,4.8,2.,4.8
1979-07-22 03:13:11.560 ,6,0,0.,4.8,1.,4.8,1.,4.8,3.,4.8
1979-07-22 03:13:16.360 ,6,0,0.,4.8,2.,4.8,1.,4.8,2.,4.8
1979-07-22 03:13:21.160 ,6,0,0.,4.8,5.,4.8,2.,4.8,3.,4.8
1979-07-22 03:13:25.960 ,6,0,0.,4.8,2.,4.8,0.,4.8,2.,4.8
1979-07-22 03:13:30.760 ,6,0,0.,4.8,6.,4.8,0.,4.8,0.,4.8
1979-07-22 03:13:35.560 ,5,0,0.,4.8,6.,4.8,4.,4.8,1.,4.8
1979-07-22 03:13:40.360 ,5,0,0.,4.8,4.,4.8,3.,4.8,1.,4.8
1979-07-22 03:13:45.160 ,5,0,0.,4.8,4.,4.8,0.,4.8,0.,4.8
1979-07-22 03:13:49.960 ,5,0,0.,4.8,4.,4.8,1.,4.8,2.,4.8
1979-07-22 03:13:54.760 ,5,0,0.,4.8,0.,4.8,0.,4.8,1.,4.8
1979-07-22 03:13:59.560 ,5,0,0.,4.8,3.,4.8,0.,4.8,0.,4.8
1979-07-22 03:14:04.360 ,5,0,0.,4.8,2.,4.8,1.,4.8,2.,4.8
1979-07-22 03:14:09.160 ,5,0,0.,4.8,4.,4.8,1.,4.8,2.,4.8
1979-07-22 03:14:13.960 ,5,0,0.,4.8,2.,4.8,1.,4.8,4.,4.8
1979-07-22 03:14:18.760 ,5,0,0.,4.8,2.,4.8,3.,4.8,0.,4.8
1979-07-22 03:14:23.560 ,4,0,0.,4.8,2.,4.8,2.,4.8,0.,4.8
1979-07-22 03:14:28.360 ,4,0,0.,4.8,3.,4.8,1.,4.8,4.,4.8
1979-07-22 03:14:33.160 ,4,0,0.,4.8,1.,4.8,1.,4.8,0.,4.8
1979-07-22 03:14:37.960 ,4,0,0.,4.8,1.,4.8,1.,4.8,2.,4.8
1979-07-22 03:14:42.760 ,4,0,0.,4.8,3.,4.8,3.,4.8,0.,4.8
1979-07-22 03:14:47.560 ,4,0,0.,4.8,1.,4.8,1.,4.8,2.,4.8
1979-07-22 03:14:52.360 ,4,0,0.,4.8,2.,4.8,0.,4.8,0.,4.8
1979-07-22 03:14:57.160 ,4,0,0.,4.8,4.,4.8,1.,4.8,2.,4.8
1979-07-22 03:15:01.960 ,4,0,0.,4.8,2.,4.8,3.,4.8,5.,4.8
1979-07-22 03:15:06.760 ,4,0,0.,4.8,3.,4.8,3.,4.8,1.,4.8
1979-07-22 03:15:11.560 ,3,0,0.,4.8,1.,4.8,2.,4.8,1.,4.8
1979-07-22 03:15:16.360 ,3,0,0.,4.8,2.,4.8,2.,4.8,1.,4.8
1979-07-22 03:15:21.160 ,3,0,0.,4.8,3.,4.8,2.,4.8,1.,4.8
1979-07-22 03:15:25.960 ,3,0,0.,4.8,2.,4.8,1.,4.8,0.,4.8
1979-07-22 03:15:30.760 ,3,0,0.,4.8,5.,4.8,1.,4.8,0.,4.8
1979-07-22 03:15:35.560 ,3,0,0.,4.8,1.,4.8,2.,4.8,0.,4.8
1979-07-22 03:15:40.360 ,3,0,0.,4.8,6.,4.8,0.,4.8,0.,4.8
1979-07-22 03:15:45.160 ,3,0,0.,4.8,3.,4.8,0.,4.8,3.,4.8
1979-07-22 03:15:49.960 ,3,0,0.,4.8,3.,4.8,1.,4.8,0.,4.8
1979-07-22 03:15:54.760 ,3,0,0.,4.8,6.,4.8,1.,4.8,0.,4.8
1979-07-22 03:15:59.560 ,2,0,0.,4.8,3.,4.8,1.,4.8,1.,4.8
1979-07-22 03:16:04.360 ,2,0,0.,4.8,4.,4.8,1.,4.8,1.,4.8
1979-07-22 03:16:09.160 ,2,0,0.,4.8,2.,4.8,4.,4.8,0.,4.8
1979-07-22 03:16:13.960 ,2,0,0.,4.8,2.,4.8,2.,4.8,0.,4.8
1979-07-22 03:16:18.760 ,2,0,0.,4.8,4.,4.8,2.,4.8,2.,4.8
1979-07-22 03:16:23.560 ,2,0,0.,4.8,3.,4.8,1.,4.8,0.,4.8
1979-07-22 03:16:28.360 ,2,0,0.,4.8,4.,4.8,0.,4.8,1.,4.8
1979-07-22 03:16:33.160 ,2,0,0.,4.8,3.,4.8,1.,4.8,0.,4.8
1979-07-22 03:16:37.960 ,2,0,0.,4.8,1.,4.8,0.,4.8,0.,4.8
1979-07-22 03:16:42.760 ,2,0,0.,4.8,3.,4.8,2.,4.8,2.,4.8
1979-07-22 03:16:47.560 ,1,0,0.,4.8,3.,4.8,3.,4.8,1.,4.8
1979-07-22 03:16:52.360 ,1,0,0.,4.8,2.,4.8,1.,4.8,0.,4.8
1979-07-22 03:16:57.160 ,1,0,0.,4.8,3.,4.8,0.,4.8,0.,4.8
1979-07-22 03:17:01.960 ,1,0,0.,4.8,6.,4.8,2.,4.8,1.,4.8
1979-07-22 03:17:06.760 ,1,0,0.,4.8,4.,4.8,0.,4.8,1.,4.8
1979-07-22 03:17:11.560 ,1,0,0.,4.8,5.,4.8,1.,4.8,1.,4.8
1979-07-22 03:17:16.350 ,1,0,0.,4.8,4.,4.8,3.,4.8,2.,4.8
1979-07-22 03:17:21.160 ,1,0,0.,4.8,7.,4.8,3.,4.8,2.,4.8
1979-07-22 03:17:25.960 ,1,0,0.,4.8,5.,4.8,2.,4.8,1.,4.8
1979-07-22 03:17:30.760 ,1,0,0.,4.8,2.,4.8,0.,4.8,2.,4.8
1979-07-22 03:17:35.560 ,0,0,0.,4.8,3.,4.8,0.,4.8,1.,4.8
1979-07-22 03:17:40.350 ,0,0,0.,4.8,5.,4.8,3.,4.8,1.,4.8
1979-07-22 03:17:45.160 ,0,0,0.,4.8,7.,4.8,2.,4.8,2.,4.8
1979-07-22 03:17:49.960 ,0,0,0.,4.8,1.,4.8,0.,4.8,1.,4.8
1979-07-22 03:17:54.760 ,0,0,0.,4.8,4.,4.8,1.,4.8,1.,4.8
1979-07-22 03:17:59.560 ,0,0,0.,4.8,3.,4.8,1.,4.8,1.,4.8
1979-07-22 03:18:04.350 ,0,0,0.,4.8,0.,4.8,1.,4.8,1.,4.8
1979-07-22 03:18:09.160 ,0,0,0.,4.8,2.,4.8,0.,4.8,1.,4.8
1979-07-22 03:18:13.960 ,0,0,0.,4.8,3.,4.8,1.,4.8,1.,4.8
1979-07-22 03:18:18.760 ,0,0,0.,4.8,4.,4.8,1.,4.8,1.,4.8
1979-07-22 03:18:23.560 ,0,0,0.,4.8,2.,4.8,1.,4.8,0.,4.8
1979-07-22 03:18:28.350 ,0,0,0.,4.8,4.,4.8,1.,4.8,0.,4.8
1979-07-22 03:18:33.160 ,0,0,0.,4.8,5.,4.8,1.,4.8,0.,4.8
1979-07-22 03:18:37.960 ,0,0,0.,4.8,0.,4.8,1.,4.8,1.,4.8
1979-07-22 03:18:42.760 ,0,0,0.,4.8,3.,4.8,3.,4.8,1.,4.8
1979-07-22 03:18:47.560 ,0,0,0.,4.8,1.,4.8,0.,4.8,2.,4.8
1979-07-22 03:18:52.350 ,0,0,0.,4.8,1.,4.8,2.,4.8,0.,4.8
1979-07-22 03:18:57.160 ,0,0,0.,4.8,4.,4.8,1.,4.8,0.,4.8
1979-07-22 03:19:01.960 ,0,0,0.,4.8,2.,4.8,2.,4.8,1.,4.8
1979-07-22 03:19:06.760 ,0,0,0.,4.8,2.,4.8,0.,4.8,1.,4.8
1979-07-22 03:19:11.560 ,1,0,0.,4.8,1.,4.8,0.,4.8,1.,4.8
1979-07-22 03:19:16.350 ,1,0,0.,4.8,5.,4.8,0.,4.8,0.,4.8
1979-07-22 03:19:21.160 ,1,0,0.,4.8,3.,4.8,1.,4.8,0.,4.8
1979-07-22 03:19:25.960 ,1,0,0.,4.8,4.,4.8,3.,4.8,0.,4.8
1979-07-22 03:19:30.760 ,1,0,0.,4.8,2.,4.8,1.,4.8,3.,4.8
1979-07-22 03:19:35.560 ,1,0,0.,4.8,8.,4.8,0.,4.8,3.,4.8
1979-07-22 03:19:40.350 ,1,0,0.,4.8,1.,4.8,3.,4.8,2.,4.8
1979-07-22 03:19:45.160 ,1,0,0.,4.8,2.,4.8,0.,4.8,1.,4.8
1979-07-22 03:19:49.960 ,1,0,0.,4.8,3.,4.8,0.,4.8,1.,4.8
1979-07-22 03:19:54.760 ,1,0,0.,4.8,2.,4.8,0.,4.8,3.,4.8
1979-07-22 03:19:59.560 ,2,0,0.,4.8,3.,4.8,1.,4.8,2.,4.8
1979-07-22 03:20:04.350 ,2,0,0.,4.8,2.,4.8,3.,4.8,0.,4.8
1979-07-22 03:20:09.160 ,2,0,0.,4.8,3.,4.8,1.,4.8,0.,4.8
1979-07-22 03:20:13.960 ,2,0,0.,4.8,3.,4.8,0.,4.8,3.,4.8
1979-07-22 03:20:18.760 ,2,0,0.,4.8,1.,4.8,2.,4.8,0.,4.8
1979-07-22 03:20:23.560 ,2,0,0.,4.8,4.,4.8,2.,4.8,2.,4.8
1979-07-22 03:20:28.350 ,2,0,0.,4.8,4.,4.8,1.,4.8,2.,4.8
1979-07-22 03:20:33.160 ,2,0,0.,4.8,5.,4.8,3.,4.8,2.,4.8
1979-07-22 03:20:37.960 ,2,0,0.,4.8,3.,4.8,4.,4.8,0.,4.8
1979-07-22 03:20:42.760 ,2,0,0.,4.8,4.,4.8,4.,4.8,1.,4.8
1979-07-22 03:20:47.560 ,3,0,0.,4.8,2.,4.8,1.,4.8,1.,4.8
1979-07-22 03:20:52.350 ,3,0,0.,4.8,2.,4.8,3.,4.8,3.,4.8
1979-07-22 03:20:57.160 ,3,0,0.,4.8,2.,4.8,0.,4.8,1.,4.8
1979-07-22 03:21:01.960 ,3,0,0.,4.8,4.,4.8,2.,4.8,0.,4.8
1979-07-22 03:21:06.760 ,3,0,0.,4.8,5.,4.8,1.,4.8,1.,4.8
1979-07-22 03:21:11.560 ,3,0,0.,4.8,4.,4.8,0.,4.8,0.,4.8
1979-07-22 03:21:16.350 ,3,0,0.,4.8,2.,4.8,4.,4.8,1.,4.8
1979-07-22 03:21:21.160 ,3,0,,0,,0,,0,,0
1979-07-22 03:21:25.960 ,3,0,0.,4.8,2.,4.8,3.,4.8,0.,4.8
1979-07-22 03:21:30.760 ,3,0,0.,4.8,1.,4.8,3.,4.8,1.,4.8
1979-07-22 03:21:35.560 ,4,0,0.,4.8,5.,4.8,1.,4.8,2.,4.8
1979-07-22 03:21:40.350 ,4,0,0.,4.8,6.,4.8,3.,4.8,0.,4.8
1979-07-22 03:21:45.160 ,4,0,0.,4.8,3.,4.8,2.,4.8,1.,4.8
1979-07-22 03:21:49.960 ,4,0,0.,4.8,2.,4.8,1.,4.8,2.,4.8
1979-07-22 03:21:54.760 ,4,0,0.,4.8,4.,4.8,2.,4.8,0.,4.8
1979-07-22 03:21:59.560 ,4,0,0.,4.8,4.,4.8,2.,4.8,0.,4.8
1979-07-22 03:22:04.350 ,4,0,0.,4.8,0.,4.8,0.,4.8,3.,4.8
1979-07-22 03:22:09.160 ,4,0,0.,4.8,1.,4.8,2.,4.8,3.,4.8
1979-07-22 03:22:13.960 ,4,0,0.,4.8,4.,4.8,2.,4.8,1.,4.8
1979-07-22 03:22:18.760 ,4,0,0.,4.8,3.,4.8,3.,4.8,2.,4.8
1979-07-22 03:22:23.550 ,5,0,0.,4.8,3.,4.8,1.,4.8,1.,4.8
1979-07-22 03:22:28.350 ,5,0,0.,4.8,5.,4.8,3.,4.8,0.,4.8
1979-07-22 03:22:33.150 ,5,0,0.,4.8,3.,4.8,1.,4.8,2.,4.8
1979-07-22 03:22:37.950 ,5,0,0.,4.8,2.,4.8,2.,4.8,0.,4.8
1979-07-22 03:22:42.750 ,5,0,0.,4.8,1.,4.8,1.,4.8,0.,4.8
1979-07-22 03:22:47.550 ,0,0,0.,4.8,3.,4.8,1.,4.8,2.,4.8
1979-07-22 03:22:52.350 ,0,0,0.,4.8,4.,4.8,1.,4.8,1.,4.8
1979-07-22 03:22:57.150 ,0,0,0.,4.8,2.,4.8,2.,4.8,1.,4.8
1979-07-22 03:23:01.950 ,0,0,0.,4.8,2.,4.8,0.,4.8,1.,4.8
1979-07-22 03:23:06.750 ,0,0,,0,,0,,0,,0
1979-07-22 03:23:11.550 ,6,0,0.,4.8,3.,4.8,1.,4.8,2.,4.8
1979-07-22 03:23:16.350 ,6,0,0.,4.8,2.,4.8,3.,4.8,0.,4.8
1979-07-22 03:23:21.150 ,6,0,0.,4.8,3.,4.8,2.,4.8,1.,4.8
1979-07-22 03:23:25.950 ,6,0,0.,4.8,1.,4.8,2.,4.8,1.,4.8
1979-07-22 03:23:30.750 ,6,0,0.,4.8,1.,4.8,1.,4.8,1.,4.8
1979-07-22 03:23:35.550 ,6,0,0.,4.8,2.,4.8,1.,4.8,0.,4.8
1979-07-22 03:23:40.350 ,6,0,0.,4.8,7.,4.8,1.,4.8,0.,4.8
1979-07-22 03:23:45.150 ,6,0,0.,4.8,5.,4.8,0.,4.8,0.,4.8
1979-07-22 03:23:49.950 ,6,0,0.,4.8,4.,4.8,1.,4.8,0.,4.8
1979-07-22 03:23:54.750 ,6,0,0.,4.8,6.,4.8,2.,4.8,4.,4.8
1979-07-22 03:23:59.550 ,7,0,0.,4.8,2.,4.8,1.,4.8,1.,4.8
1979-07-22 03:24:04.350 ,7,0,0.,4.8,2.,4.8,2.,4.8,0.,4.8
1979-07-22 03:24:09.150 ,7,0,0.,4.8,0.,4.8,1.,4.8,0.,4.8
1979-07-22 03:24:13.950 ,7,0,0.,4.8,0.,4.8,0.,4.8,0.,4.8
1979-07-22 03:24:18.750 ,7,0,0.,4.8,0.,4.8,0.,4.8,0.,4.8
1979-07-22 03:24:23.550 ,7,0,0.,4.8,1.,4.8,0.,4.8,0.,4.8
1979-07-22 03:24:28.350 ,7,0,0.,4.8,0.,4.8,0.,4.8,0.,4.8
1979-07-22 03:24:33.150 ,7,0,0.,4.8,0.,4.8,0.,4.8,0.,4.8
1979-07-22 03:24:37.950 ,7,0,0.,4.8,0.,4.8,1.,4.8,2.,4.8
1979-07-22 03:24:42.750 ,7,0,0.,4.8,0.,4.8,1.,4.8,0.,4.8
1979-07-22 03:24:47.550 ,7,0,0.,4.8,1.,4.8,0.,4.8,0.,4.8
1979-07-22 03:24:52.350 ,7,0,0.,4.8,0.,4.8,0.,4.8,0.,4.8
1979-07-22 03:24:57.150 ,7,0,0.,4.8,1.,4.8,0.,4.8,0.,4.8
1979-07-22 03:25:01.950 ,7,0,0.,4.8,1.,4.8,0.,4.8,0.,4.8
1979-07-22 03:25:06.750 ,7,0,0.,4.8,0.,4.8,0.,4.8,0.,4.8
1979-07-22 03:25:11.550 ,7,0,0.,4.8,0.,4.8,0.,4.8,1.,4.8
1979-07-22 03:25:16.350 ,7,0,0.,4.8,0.,4.8,0.,4.8,0.,4.8
1979-07-22 03:25:21.150 ,7,0,0.,4.8,0.,4.8,0.,4.8,0.,4.8
1979-07-22 03:25:25.950 ,7,0,0.,4.8,0.,4.8,0.,4.8,0.,4.8
1979-07-22 03:25:30.750 ,7,0,0.,4.8,0.,4.8,0.,4.8,0.,4.8
1979-07-22 03:25:35.550 ,6,0,0.,4.8,0.,4.8,0.,4.8,0.,4.8
1979-07-22 03:25:40.350 ,6,0,0.,4.8,0.,4.8,0.,4.8,0.,4.8
1979-07-22 03:25:45.150 ,6,0,0.,4.8,3.,4.8,2.,4.8,0.,4.8
1979-07-22 03:25:49.950 ,6,0,0.,4.8,4.,4.8,0.,4.8,1.,4.8
1979-07-22 03:25:54.750 ,6,0,0.,4.8,1.,4.8,1.,4.8,3.,4.8
1979-07-22 03:25:59.550 ,6,0,0.,4.8,1.,4.8,1.,4.8,1.,4.8
1979-07-22 03:26:04.350 ,6,0,0.,4.8,3.,4.8,1.,4.8,1.,4.8
1979-07-22 03:26:09.150 ,6,0,0.,4.8,2.,4.8,1.,4.8,2.,4.8
1979-07-22 03:26:13.950 ,6,0,0.,4.8,6.,4.8,2.,4.8,1.,4.8
1979-07-22 03:26:18.750 ,6,0,0.,4.8,3.,4.8,4.,4.8,1.,4.8
1979-07-22 03:26:23.550 ,5,0,0.,4.8,5.,4.8,1.,4.8,2.,4.8
1979-07-22 03:26:28.350 ,5,0,0.,4.8,4.,4.8,2.,4.8,0.,4.8
1979-07-22 03:26:33.150 ,5,0,0.,4.8,1.,4.8,1.,4.8,1.,4.8
1979-07-22 03:26:37.950 ,5,0,0.,4.8,6.,4.8,1.,4.8,1.,4.8
1979-07-22 03:26:42.750 ,5,0,0.,4.8,3.,4.8,1.,4.8,1.,4.8
1979-07-22 03:26:47.550 ,5,0,0.,4.8,3.,4.8,2.,4.8,2.,4.8
1979-07-22 03:26:52.350 ,5,0,0.,4.8,4.,4.8,1.,4.8,1.,4.8
1979-07-22 03:26:57.150 ,5,0,0.,4.8,3.,4.8,1.,4.8,1.,4.8
1979-07-22 03:27:01.950 ,5,0,0.,4.8,5.,4.8,6.,4.8,2.,4.8
1979-07-22 03:27:06.750 ,5,0,0.,4.8,5.,4.8,1.,4.8,1.,4.8
1979-07-22 03:27:11.550 ,4,0,0.,4.8,4.,4.8,2.,4.8,2.,4.8
1979-07-22 03:27:16.350 ,4,0,0.,4.8,5.,4.8,3.,4.8,0.,4.8
1979-07-22 03:27:21.150 ,4,0,0.,4.8,1.,4.8,7.,4.8,4.,4.8
1979-07-22 03:27:25.950 ,4,0,0.,4.8,4.,4.8,3.,4.8,0.,4.8
1979-07-22 03:27:30.750 ,4,0,0.,4.8,5.,4.8,1.,4.8,1.,4.8
1979-07-22 03:27:35.550 ,4,0,0.,4.8,3.,4.8,3.,4.8,1.,4.8
1979-07-22 03:27:40.350 ,4,0,0.,4.8,6.,4.8,3.,4.8,3.,4.8
1979-07-22 03:27:45.150 ,4,0,0.,4.8,6.,4.8,0.,4.8,3.,4.8
1979-07-22 03:27:49.950 ,4,0,0.,4.8,3.,4.8,4.,4.8,2.,4.8
1979-07-22 03:27:54.750 ,4,0,0.,4.8,5.,4.8,5.,4.8,1.,4.8
1979-07-22 03:27:59.550 ,3,0,0.,4.8,3.,4.8,2.,4.8,3.,4.8
1979-07-22 03:28:04.350 ,3,0,0.,4.8,5.,4.8,1.,4.8,1.,4.8
1979-07-22 03:28:09.150 ,3,0,0.,4.8,5.,4.8,5.,4.8,1.,4.8
1979-07-22 03:28:13.950 ,3,0,0.,4.8,5.,4.8,0.,4.8,0.,4.8
1979-07-22 03:28:18.750 ,3,0,0.,4.8,2.,4.8,7.,4.8,1.,4.8
1979-07-22 03:28:23.550 ,3,0,0.,4.8,10.,4.8,1.,4.8,2.,4.8
1979-07-22 03:28:28.350 ,3,0,0.,4.8,3.,4.8,3.,4.8,2.,4.8
1979-07-22 03:28:33.150 ,3,0,0.,4.8,8.,4.8,4.,4.8,2.,4.8
1979-07-22 03:28:37.950 ,3,0,0.,4.8,5.,4.8,0.,4.8,2.,4.8
1979-07-22 03:28:42.750 ,3,0,0.,4.8,2.,4.8,2.,4.8,3.,4.8
1979-07-22 03:28:47.550 ,2,0,0.,4.8,6.,4.8,3.,4.8,1.,4.8
1979-07-22 03:28:52.350 ,2,0,0.,4.8,7.,4.8,3.,4.8,2.,4.8
1979-07-22 03:28:57.150 ,2,0,0.,4.8,2.,4.8,3.,4.8,1.,4.8
1979-07-22 03:29:01.950 ,2,0,0.,4.8,7.,4.8,1.,4.8,3.,4.8
1979-07-22 03:29:06.750 ,2,0,0.,4.8,8.,4.8,3.,4.8,1.,4.8
1979-07-22 03:29:11.550 ,2,0,0.,4.8,4.,4.8,2.,4.8,0.,4.8
1979-07-22 03:29:16.350 ,2,0,0.,4.8,5.,4.8,5.,4.8,3.,4.8
1979-07-22 03:29:21.150 ,2,0,0.,4.8,5.,4.8,5.,4.8,1.,4.8
1979-07-22 03:29:25.950 ,2,0,0.,4.8,1.,4.8,1.,4.8,3.,4.8
1979-07-22 03:29:30.750 ,2,0,0.,4.8,6.,4.8,2.,4.8,0.,4.8
1979-07-22 03:29:35.550 ,1,0,0.,4.8,3.,4.8,4.,4.8,0.,4.8
1979-07-22 03:29:40.350 ,1,0,0.,4.8,1.,4.8,0.,4.8,1.,4.8
1979-07-22 03:29:45.150 ,1,0,0.,4.8,10.,4.8,2.,4.8,2.,4.8
1979-07-22 03:29:49.950 ,1,0,0.,4.8,6.,4.8,7.,4.8,2.,4.8
1979-07-22 03:29:54.750 ,1,0,0.,4.8,6.,4.8,4.,4.8,3.,4.8
1979-07-22 03:29:59.550 ,1,0,0.,4.8,8.,4.8,5.,4.8,1.,4.8
1979-07-22 03:30:04.350 ,1,0,0.,4.8,6.,4.8,2.,4.8,1.,4.8
1979-07-22 03:30:09.150 ,1,0,0.,4.8,10.,4.8,2.,4.8,1.,4.8
1979-07-22 03:30:13.950 ,1,0,0.,4.8,2.,4.8,4.,4.8,5.,4.8
1979-07-22 03:30:18.750 ,1,0,0.,4.8,3.,4.8,2.,4.8,2.,4.8
1979-07-22 03:30:23.550 ,0,0,0.,4.8,8.,4.8,0.,4.8,1.,4.8
1979-07-22 03:30:28.350 ,0,0,0.,4.8,5.,4.8,3.,4.8,2.,4.8
1979-07-22 03:30:33.150 ,0,0,0.,4.8,1.,4.8,3.,4.8,1.,4.8
1979-07-22 03:30:37.950 ,0,0,0.,4.8,2.,4.8,2.,4.8,1.,4.8
1979-07-22 03:30:42.750 ,0,0,0.,4.8,5.,4.8,2.,4.8,1.,4.8
1979-07-22 03:30:47.550 ,0,0,0.,4.8,5.,4.8,3.,4.8,1.,4.8
1979-07-22 03:30:52.350 ,0,0,0.,4.8,5.,4.8,1.,4.8,0.,4.8
1979-07-22 03:30:57.150 ,0,0,0.,4.8,2.,4.8,3.,4.8,2.,4.8
1979-07-22 03:31:01.950 ,0,0,0.,4.8,6.,4.8,4.,4.8,0.,4.8
1979-07-22 03:31:06.750 ,0,0,0.,4.8,3.,4.8,3.,4.8,2.,4.8
1979-07-22 03:31:11.550 ,0,0,1.,4.8,0.,4.8,1.,4.8,4.,4.8
1979-07-22 03:31:16.350 ,0,0,0.,4.8,2.,4.8,1.,4.8,6.,4.8
1979-07-22 03:31:21.150 ,0,0,0.,4.8,4.,4.8,2.,4.8,1.,4.8
1979-07-22 03:31:25.950 ,0,0,0.,4.8,1.,4.8,2.,4.8,0.,4.8
1979-07-22 03:31:30.750 ,0,0,0.,4.8,3.,4.8,2.,4.8,0.,4.8
1979-07-22 03:31:35.550 ,0,0,0.,4.8,1.,4.8,1.,4.8,1.,4.8
1979-07-22 03:31:40.350 ,0,0,0.,4.8,5.,4.8,1.,4.8,1.,4.8
1979-07-22 03:31:45.150 ,0,0,0.,4.8,4.,4.8,0.,4.8,2.,4.8
1979-07-22 03:31:49.950 ,0,0,0.,4.8,3.,4.8,2.,4.8,0.,4.8
1979-07-22 03:31:54.750 ,0,0,0.,4.8,3.,4.8,0.,4.8,0.,4.8
1979-07-22 03:31:59.550 ,1,0,0.,4.8,2.,4.8,2.,4.8,2.,4.8
1979-07-22 03:32:04.350 ,1,0,0.,4.8,5.,4.8,2.,4.8,2.,4.8
1979-07-22 03:32:09.150 ,1,0,0.,4.8,5.,4.8,2.,4.8,0.,4.8
1979-07-22 03:32:13.950 ,1,0,0.,4.8,3.,4.8,4.,4.8,2.,4.8
1979-07-22 03:32:18.750 ,1,0,0.,4.8,5.,4.8,3.,4.8,1.,4.8
1979-07-22 03:32:23.550 ,1,0,0.,4.8,5.,4.8,3.,4.8,4.,4.8
1979-07-22 03:32:28.350 ,1,0,0.,4.8,6.,4.8,2.,4.8,2.,4.8
1979-07-22 03:32:33.150 ,1,0,0.,4.8,4.,4.8,2.,4.8,1.,4.8
1979-07-22 03:32:37.950 ,1,0,0.,4.8,6.,4.8,4.,4.8,1.,4.8
1979-07-22 03:32:42.750 ,1,0,0.,4.8,6.,4.8,5.,4.8,3.,4.8
1979-07-22 03:32:47.550 ,2,0,0.,4.8,5.,4.8,3.,4.8,4.,4.8
1979-07-22 03:32:52.350 ,2,0,0.,4.8,8.,4.8,4.,4.8,1.,4.8
1979-07-22 03:32:57.150 ,2,0,0.,4.8,7.,4.8,2.,4.8,2.,4.8
1979-07-22 03:33:01.950 ,2,0,0.,4.8,7.,4.8,2.,4.8,0.,4.8
1979-07-22 03:33:06.750 ,2,0,0.,4.8,7.,4.8,2.,4.8,1.,4.8
1979-07-22 03:33:11.550 ,2,0,0.,4.8,5.,4.8,6.,4.8,1.,4.8
1979-07-22 03:33:16.350 ,2,0,0.,4.8,8.,4.8,5.,4.8,1.,4.8
1979-07-22 03:33:21.150 ,2,0,0.,4.8,5.,4.8,0.,4.8,0.,4.8